[[{"header":{"parameterUnit":"m.s-1","parameterCategory":1,"la1":30.2991,"la2":30.254,"lo1":-89.0895,"lo2":-89.0444,"dy":0.0017,"dx":0.0017,"nx":28,"ny":28,"refTime":"2025-04-18T21:00:00:Z","depth":0,"parameterNumber":2,"parameterNumberName":"U-component_of_WINDS"},"data":[0,0,0,0,0,0,0,0,0,0,0,0,0,0,0,0,0,0,0,0,0,0,0,0,0,0,0,0,0,0,0,0,0,0,0,0,0,0,0,0,0,0,0,0,0,0,0,0,0,0,0,0,0,0,0,0,0,0,-5.3624,-5.3625,0,-5.3728,-5.3729,-5.373,-5.3666,-5.3663,-5.366,-5.3657,-5.3764,-5.3769,-5.3775,0,0,0,0,0,0,0,0,0,0,0,0,0,-5.3371,-5.3376,-5.3624,-5.3625,-5.3627,-5.3728,-5.3729,-5.3731,-5.3667,-5.3663,-5.3659,-5.3656,-5.3762,-5.3768,-5.3775,0,0,0,0,0,0,0,0,0,0,0,0,0,-5.3478,-5.3377,-5.3624,-5.3607,-5.3606,-5.3728,-5.3729,-5.3731,-5.3667,-5.3663,-5.3658,-5.3654,-5.3759,-5.3768,-5.3776,-5.392,0,0,-5.3802,-5.3806,0,0,0,0,0,0,0,0,-5.3472,-5.3488,-5.3608,-5.3608,-5.3608,-5.3679,-5.3679,-5.3794,-5.3669,-5.3644,-5.3657,-5.3652,-5.3739,-5.3749,-5.3779,-5.3925,-5.3929,-5.3803,-5.3808,-5.3812,-5.3814,0,0,0,0,0,0,0,-5.3465,-5.3483,-5.3665,-5.361,-5.361,-5.3594,-5.3605,-5.37,-5.3716,-5.3646,-5.3642,-5.3655,-5.3738,-5.3771,-5.3781,-5.3931,-5.3802,-5.381,-5.3815,-5.3819,-5.42,-5.4205,0,0,0,0,0,0,-5.3459,-5.3477,-5.3662,-5.3668,-5.3528,-5.3603,-5.3614,-5.3661,-5.3715,-5.3719,-5.3659,-5.3651,-5.3758,-5.3771,-5.3784,-5.3955,-5.3811,-5.3819,-5.3824,-5.4195,-5.4201,-5.4206,0,0,0,0,0,0,-5.3454,-5.3476,-5.3658,-5.3572,-5.3594,-5.3612,-5.3665,-5.3666,-5.3698,-5.3724,-5.3727,-5.3689,-5.3755,-5.3772,-5.3886,-5.3957,-5.3823,-5.3831,-5.4189,-5.4197,-5.4204,-5.4298,0,0,0,0,0,0,-5.3447,-5.3474,-5.3529,-5.3573,-5.3598,-5.3758,-5.367,-5.3671,-5.3712,-5.3704,-5.3753,-5.3757,-5.3753,-5.3874,-5.3895,-5.3967,-5.3838,-5.4182,-5.4192,-5.4201,-5.4288,-5.4307,-5.4324,0,0,0,0,0,-5.3438,-5.3551,-5.3532,-5.3554,-5.3667,-5.3762,-5.3777,-5.377,-5.3719,-5.3773,-5.3791,-5.3755,-5.3947,-5.3886,-5.3909,-5.3985,-5.4178,-5.419,-5.42,-5.428,-5.4304,-5.4323,0,0,0,0,0,0,-5.3514,-5.3556,-5.3535,-5.3667,-5.3711,-5.3751,-5.382,-5.3795,-5.3855,-5.3845,-5.3834,-5.3846,-5.3965,-5.3987,-5.3918,-5.4127,-5.4054,-5.4071,-5.4107,-5.413,-5.4147,-5.4138,-5.3845,0,0,0,0,0,-5.3546,-5.362,-5.3653,-5.3766,-5.3789,-5.3801,-5.3843,-5.3834,-5.388,-5.3898,-5.3924,-5.397,-5.404,-5.4087,-5.4153,-5.4292,-5.4302,-5.4356,-5.4374,-5.4388,-5.4401,-5.4476,-5.45,-5.4244,-5.4243,-5.4243,0,0,-5.3613,-5.3645,-5.3692,-5.3782,-5.3815,-5.3892,-5.3817,-5.3902,-5.3958,-5.3911,-5.4019,-5.4041,-5.4091,-5.4219,-5.4276,-5.424,-5.4475,-5.4403,-5.4414,-5.4419,-5.449,-5.4515,-5.4536,-5.4251,-5.425,-5.4249,0,0,-5.3773,-5.3806,-5.3902,-5.3938,-5.399,-5.3997,-5.4021,-5.4066,-5.4077,-5.4187,-5.4153,-5.4221,-5.4343,-5.438,-5.4415,-5.4592,-5.4562,-5.4615,-5.4707,-5.478,-5.48,-5.4818,-5.4879,-5.4902,-5.4629,-5.4629,-5.4629,0,-5.3848,-5.3962,-5.3955,-5.4042,-5.4082,-5.4044,-5.4142,-5.4177,-5.4249,-5.4277,-5.4237,-5.439,-5.4421,-5.4556,-5.46,-5.463,-5.4656,-5.4607,-5.4798,-5.4816,-5.4832,-5.4891,-5.4914,-5.4635,-5.4634,-5.4634,-5.4633,0,-5.4053,-5.4133,-5.4205,-5.4275,-5.4323,-5.4416,-5.4422,-5.4473,-5.4461,-5.4473,-5.4585,-5.4623,-5.4696,-5.4728,-5.4717,-5.4862,-5.4838,-5.4799,-5.4725,-5.4862,-5.4917,-5.494,-5.4643,-5.4641,-5.4639,-5.4638,0,0,-5.426,-5.4326,-5.4353,-5.4384,-5.444,-5.4501,-5.4593,-5.4665,-5.4707,-5.4759,-5.4835,-5.494,-5.4904,-5.4944,-5.4937,-5.5002,-5.5138,-5.4954,-5.4955,-5.4985,-5.5299,-5.5326,-5.5353,-5.512,-5.5124,-5.5128,-5.5294,0,-5.4422,-5.458,-5.4577,-5.4723,-5.4797,-5.4763,-5.4843,-5.4886,-5.49,-5.4965,-5.4981,-5.5055,-5.5003,-5.5027,-5.509,-5.5108,-5.5201,-5.5097,-5.5189,-5.5192,-5.5174,-5.5381,-5.541,-5.5565,-5.5316,-5.5319,-5.5322,0,-5.463,-5.4689,-5.4843,-5.4888,-5.4919,-5.499,-5.5056,-5.5119,-5.5168,-5.5174,-5.522,-5.5204,-5.5297,-5.5224,-5.5351,-5.5281,-5.5319,-5.5334,-5.534,-5.5346,-5.5263,-5.539,-5.5615,-5.5637,-5.5356,-5.5353,-5.5351,0,-5.4763,-5.4881,-5.4988,-5.5016,-5.5073,-5.5124,-5.515,-5.5194,-5.5238,-5.5296,-5.5324,-5.5393,-5.543,-5.5484,-5.5487,-5.5434,-5.5616,-5.5543,-5.5622,-5.5622,-5.5659,-5.5656,-5.589,-5.5689,-5.5689,-5.5688,-5.5688,0,-5.4942,-5.5037,-5.5049,-5.5114,-5.522,-5.5217,-5.5322,-5.5343,-5.5384,-5.5453,-5.543,-5.5495,-5.5497,-5.5564,-5.5568,-5.5672,-5.569,-5.5697,-5.5696,-5.5697,-5.5696,-5.572,-5.5708,-5.5695,-5.5693,-5.5692,-5.5691,0,-5.5107,-5.5119,-5.5233,-5.5278,-5.5291,-5.5367,-5.5406,-5.5468,-5.5482,-5.557,-5.5591,-5.5612,-5.569,-5.57,-5.5791,-5.5794,-5.5919,-5.5908,-5.5902,-5.5899,-5.5977,-5.5969,-5.6232,-5.6266,-5.6045,-5.6048,-5.6049,0,-5.5218,-5.5291,-5.5344,-5.5389,-5.5417,-5.549,-5.5535,-5.5536,-5.5583,-5.5645,-5.5701,-5.5777,-5.5837,-5.5965,-5.5988,-5.6058,-5.6047,-5.6135,-5.6057,-5.6056,-5.6046,-5.604,-5.6047,-5.6149,-5.6151,-5.6153,-5.6155,0,-5.5415,-5.5418,-5.5482,-5.5551,-5.5605,-5.5658,-5.5708,-5.5747,-5.5754,-5.5809,-5.5889,-5.5936,-5.603,-5.6106,-5.6175,-5.6202,-5.618,-5.618,-5.6201,-5.6202,-5.6194,-5.6197,-5.594,-5.6173,-5.6171,-5.617,-5.6169,-5.6168,-5.5555,-5.5617,-5.5664,-5.5738,-5.5776,-5.5824,-5.5885,-5.5907,-5.5974,-5.605,-5.6047,-5.6135,-5.6183,-5.6274,-5.6307,-5.6376,-5.6347,-5.6379,-5.6386,-5.6393,-5.64,-5.6186,-5.6389,-5.6389,-5.6388,-5.6388,-5.6387,0,-5.5748,-5.5777,-5.5845,-5.5916,-5.5974,-5.595,-5.6005,-5.6055,-5.6132,-5.618,-5.624,-5.6332,-5.6406,-5.6437,-5.651,-5.6559,-5.6551,-5.6578,-5.6572,-5.6579,-5.6423,-5.6396,-5.6583,-5.6583,-5.6583,-5.6583,-5.6583,-5.6583,-5.5855,-5.5959,-5.5968,-5.6091,-5.612,-5.6205,-5.6239,-5.6283,-5.6321,-5.6424,-5.6486,-5.6506,-5.6547,-5.6622,-5.6689,-5.6696,-5.6723,-5.6754,-5.6757,-5.661,-5.659,-5.6571,-5.6545,-5.6761,-5.6761,-5.6907,-5.6908,-5.6909]},{"header":{"parameterUnit":"m.s-1","parameterCategory":1,"la1":30.2991,"la2":30.254,"lo1":-89.0895,"lo2":-89.0444,"dy":0.0017,"dx":0.0017,"nx":28,"ny":28,"refTime":"2025-04-18T21:00:00:Z","depth":0,"parameterNumber":3,"parameterNumberName":"V-component_of_WINDS"},"data":[0,0,0,0,0,0,0,0,0,0,0,0,0,0,0,0,0,0,0,0,0,0,0,0,0,0,0,0,0,0,0,0,0,0,0,0,0,0,0,0,0,0,0,0,0,0,0,0,0,0,0,0,0,0,0,0,0,0,2.8383,2.8383,0,2.84,2.84,2.8401,2.8361,2.836,2.8359,2.8358,2.8374,2.8376,2.8377,0,0,0,0,0,0,0,0,0,0,0,0,0,2.8314,2.8315,2.8382,2.8383,2.8383,2.84,2.84,2.8401,2.8362,2.836,2.8359,2.8357,2.8374,2.8376,2.8377,0,0,0,0,0,0,0,0,0,0,0,0,0,2.8339,2.8316,2.8382,2.8366,2.8364,2.84,2.84,2.8401,2.8362,2.836,2.8358,2.8356,2.8373,2.8375,2.8378,2.843,0,0,2.8385,2.8386,0,0,0,0,0,0,0,0,2.8337,2.8341,2.8368,2.8367,2.8365,2.8377,2.8382,2.8411,2.8362,2.8363,2.8358,2.8356,2.8376,2.8378,2.8386,2.8431,2.8432,2.8385,2.8387,2.8388,2.8389,0,0,0,0,0,0,0,2.8336,2.834,2.8389,2.8368,2.8367,2.8357,2.8358,2.8387,2.838,2.8363,2.836,2.8363,2.8375,2.8384,2.8386,2.8432,2.8385,2.8387,2.8389,2.839,2.8522,2.8524,0,0,0,0,0,0,2.8336,2.8339,2.8389,2.839,2.8347,2.836,2.8361,2.8375,2.8379,2.8378,2.8364,2.8361,2.838,2.8383,2.8386,2.8449,2.8388,2.839,2.8391,2.852,2.8522,2.8525,0,0,0,0,0,0,2.8335,2.8341,2.8388,2.8364,2.8369,2.8363,2.8379,2.8376,2.8384,2.8381,2.8379,2.8374,2.8379,2.8383,2.842,2.8449,2.8391,2.8393,2.8518,2.8521,2.8524,2.8573,0,0,0,0,0,0,2.8333,2.8341,2.8361,2.8365,2.8371,2.8422,2.838,2.8378,2.8389,2.8385,2.8389,2.8388,2.8378,2.8417,2.8422,2.8451,2.8395,2.8515,2.8519,2.8523,2.8569,2.8578,2.8585,0,0,0,0,0,2.8331,2.8374,2.8362,2.8368,2.8396,2.8424,2.8427,2.8414,2.8391,2.8411,2.8409,2.8388,2.8445,2.8421,2.8427,2.8457,2.8513,2.8518,2.8522,2.8566,2.8576,2.8585,0,0,0,0,0,0,2.8372,2.8374,2.8361,2.8406,2.8415,2.8417,2.8442,2.8426,2.8441,2.8436,2.8419,2.8421,2.8461,2.8462,2.8436,2.8508,2.8475,2.8481,2.8506,2.8516,2.8524,2.8522,2.8397,0,0,0,0,0,2.8387,2.841,2.841,2.845,2.8455,2.8448,2.8459,2.8449,2.8458,2.8461,2.8461,2.847,2.8489,2.8503,2.852,2.8569,2.857,2.8593,2.8601,2.8608,2.8613,2.864,2.865,2.854,2.854,2.854,0,0,2.8417,2.8421,2.8436,2.8458,2.8464,2.8488,2.8451,2.8478,2.8496,2.8465,2.85,2.8501,2.8509,2.8553,2.8572,2.8555,2.8644,2.8614,2.8619,2.8621,2.8645,2.8656,2.8665,2.8543,2.8543,2.8542,0,0,2.8484,2.8489,2.8523,2.853,2.854,2.8535,2.8543,2.8548,2.8547,2.8583,2.856,2.8581,2.8615,2.8622,2.863,2.8702,2.8684,2.8708,2.875,2.8776,2.8785,2.8793,2.8818,2.8828,2.8714,2.8714,2.8714,0,2.852,2.8556,2.8543,2.8572,2.8582,2.8557,2.8591,2.8598,2.8613,2.8621,2.8602,2.8645,2.8649,2.8694,2.8712,2.8719,2.8728,2.8707,2.8785,2.8792,2.8799,2.8824,2.8834,2.8717,2.8716,2.8716,2.8716,0,2.86,2.8625,2.8652,2.8668,2.8681,2.8713,2.8705,2.872,2.8709,2.8706,2.8743,2.8747,2.8765,2.8775,2.8764,2.8819,2.8808,2.8788,2.8754,2.8813,2.8836,2.8845,2.8721,2.872,2.8719,2.8718,0,0,2.8693,2.8702,2.8712,2.872,2.8729,2.8748,2.8779,2.8798,2.8811,2.8823,2.8848,2.8878,2.8859,2.8869,2.8858,2.8882,2.8939,2.8858,2.8858,2.8873,2.9,2.9016,2.9027,2.8927,2.8928,2.893,2.8999,0,2.8759,2.8813,2.8803,2.8855,2.8878,2.8855,2.8882,2.889,2.8889,2.8908,2.8906,2.8928,2.8901,2.8907,2.8929,2.8927,2.8964,2.8922,2.895,2.8951,2.8949,2.9038,2.9055,2.912,2.9008,2.901,2.9011,0,2.8844,2.886,2.8915,2.8922,2.8931,2.8955,2.8972,2.8991,2.9001,2.8998,2.9009,2.8995,2.9026,2.8992,2.9034,2.9006,2.9017,2.9018,2.902,2.9022,2.8984,2.9043,2.9141,2.9151,2.9024,2.9023,2.9022,0,2.8907,2.8942,2.8979,2.8986,2.8995,2.9013,2.9017,2.9025,2.9037,2.9052,2.906,2.9078,2.9088,2.9102,2.9093,2.9069,2.9137,2.9102,2.9135,2.9136,2.915,2.9149,2.9251,2.9157,2.9157,2.9157,2.9157,0,2.8983,2.9017,2.9008,2.9031,2.9069,2.9057,2.9095,2.9096,2.9104,2.9126,2.9107,2.9129,2.9116,2.9136,2.9129,2.9165,2.917,2.9169,2.9166,2.917,2.9171,2.9177,2.9172,2.916,2.9159,2.9159,2.9158,0,2.9059,2.9054,2.9094,2.9099,2.9101,2.9129,2.9134,2.9155,2.9153,2.9182,2.9188,2.9184,2.9207,2.92,2.9225,2.922,2.9266,2.9258,2.9263,2.9261,2.9295,2.9292,2.9405,2.9419,2.9316,2.9317,2.9318,0,2.9108,2.9134,2.9143,2.9157,2.9163,2.9186,2.9199,2.9189,2.9203,2.9216,2.9236,2.9258,2.9275,2.9314,2.9313,2.9332,2.9325,2.9363,2.9327,2.9331,2.9325,2.9324,2.9327,2.937,2.9371,2.9372,2.9373,0,2.9195,2.9192,2.9211,2.9231,2.9247,2.9262,2.9275,2.9287,2.9278,2.9295,2.9319,2.9332,2.9359,2.9381,2.9399,2.9402,2.9386,2.9384,2.9393,2.9397,2.9399,2.9399,2.9283,2.9381,2.938,2.938,2.9379,2.9379,2.9259,2.9282,2.9292,2.9315,2.9324,2.9336,2.9357,2.9358,2.9378,2.9399,2.9391,2.9419,2.9429,2.9451,2.9458,2.9479,2.9465,2.9477,2.948,2.9484,2.9488,2.9396,2.9482,2.9482,2.9482,2.9482,2.9481,0,2.9346,2.9351,2.9373,2.9392,2.941,2.9394,2.9408,2.9424,2.9449,2.9459,2.9477,2.9505,2.9527,2.9528,2.9549,2.9566,2.9559,2.9571,2.957,2.9571,2.95,2.949,2.9577,2.9577,2.9577,2.9577,2.9577,2.9577,2.9393,2.9431,2.9429,2.9471,2.9476,2.9504,2.9513,2.9524,2.9533,2.9566,2.9584,2.9585,2.9592,2.9613,2.9632,2.9632,2.964,2.9656,2.9653,2.9586,2.9576,2.9567,2.9558,2.9658,2.9658,2.9722,2.9723,2.9723]}]]